Location: Recife
(8.0585°S, 34.8848°W)
Time: 10:30:37
(UTC-03:00)

Altair - Pass Details

Date: 19 April 2026
Orbit: 1501 x 1682 km, 47.2° (Epoch: 20 May)

Event Time Altitude Azimuth Distance (km) Brightness Sun altitude
Rises 06:12:00 0° 205° (SSW) 4,810 9.7 11.3°
Reaches altitude 10° 06:15:38 10° 194° (SSW) 3,850 9.4 12.2°
Maximum altitude 06:24:04 31° 135° (SE) 2,594 9.3 14.2°
Drops below altitude 10° 06:32:37 10° 77° (ENE) 3,930 12.6 16.3°
Sets 06:36:19 0° 67° (ENE) 4,924 11.8 17.2°
